WetterOnline ( https://www.wetteronline.de )

Wetter aktuell Churanov

Aktuelles Wetter: Zwiesel (613m)

6-stündlich | Neueste Meldungen
Ortszeit Temperatur Wetter
Mi, 23.10. 2:00 6.5° C Nebel
Di, 22.10. 20:00 12.9° C leicht bewölkt
Di, 22.10. 14:00 18.3° C wolkenlos
Di, 22.10. 8:00 5.3° C fast wolkenlos
Di, 22.10. 2:00 7.7° C wolkenlos
Mo, 21.10. 20:00 13.4° C leicht bewölkt
Mo, 21.10. 14:00 21.1° C bedeckt
Mo, 21.10. 8:00 7.2° C leicht bewölkt
Ortszeit Temperatur Wetter
Mi, 23.10. 7:00 6.3° C Nebel
Mi, 23.10. 6:50 6.3° C Nebel
Mi, 23.10. 6:40 6.2° C Nebel
Mi, 23.10. 6:30 6.0° C Nebel
Mi, 23.10. 6:20 6.0° C Nebel
Mi, 23.10. 6:10 6.7° C Nebel
Mi, 23.10. 6:00 6.2° C Nebel
Mi, 23.10. 5:30 6.3° C Nebel
Mi, 23.10. 5:00 6.0° C Nebel
Mi, 23.10. 4:30 6.4° C Nebel
Mi, 23.10. 4:00 5.6° C Nebel
Ortszeit Relative Feuchte Sichtweite
Mi, 23.10. 2:00 99% 100 m
Di, 22.10. 20:00 85% 14 km
Di, 22.10. 14:00 65% 9 km
Di, 22.10. 8:00 97% 6 km
Di, 22.10. 2:00 98% 8 km
Mo, 21.10. 20:00 81% 25 km
Mo, 21.10. 14:00 49% 70 km
Mo, 21.10. 8:00 95% 40 km
Ortszeit Relative Feuchte Sichtweite
Mi, 23.10. 7:00 99% 100 m
Mi, 23.10. 6:50 99% -
Mi, 23.10. 6:40 99% -
Mi, 23.10. 6:30 98% 100 m
Mi, 23.10. 6:20 98% -
Mi, 23.10. 6:10 99% -
Mi, 23.10. 6:00 99% 0.2 km
Mi, 23.10. 5:30 99% 0.2 km
Mi, 23.10. 5:00 99% 100 m
Mi, 23.10. 4:30 99% 100 m
Mi, 23.10. 4:00 99% 100 m
Ortszeit Niederschlagsmenge Niederschlagsart
Mi, 23.10. 2:00 0.0 l/m2 in 6 Std. -
Di, 22.10. 20:00 0.0 l/m2 in 12 Std. -
Di, 22.10. 14:00 0.0 l/m2 in 6 Std. -
Di, 22.10. 8:00 0.0 l/m2 in 12 Std. -
Di, 22.10. 2:00 0.0 l/m2 in 6 Std. -
Mo, 21.10. 20:00 0.0 l/m2 in 12 Std. -
Mo, 21.10. 14:00 0.0 l/m2 in 6 Std. -
Mo, 21.10. 8:00 0.0 l/m2 in 12 Std. -
Ortszeit Niederschlagsmenge Niederschlagsart
Mi, 23.10. 7:00 0.1 l/m2 in 1 Std. -
Mi, 23.10. 6:50 keine Meldung -
Mi, 23.10. 6:40 keine Meldung -
Mi, 23.10. 6:30 0.1 l/m2 in 1 Std. -
Mi, 23.10. 6:20 keine Meldung -
Mi, 23.10. 6:10 keine Meldung -
Mi, 23.10. 6:00 0.1 l/m2 in 1 Std. -
Mi, 23.10. 5:30 0.1 l/m2 in 1 Std. -
Mi, 23.10. 5:00 0.1 l/m2 in 1 Std. -
Mi, 23.10. 4:30 0.1 l/m2 in 1 Std. -
Mi, 23.10. 4:00 0.0 l/m2 in 1 Std. -
Ortszeit Stärke Spitze Richtung
km/h Bft. km/h Grad Sektor
Mi, 23.10. 2:00 4 1 7 330° NW
Di, 22.10. 20:00 7 2 14 40° NO
Di, 22.10. 14:00 7 2 18 210° SW
Di, 22.10. 8:00 4 1 7 170° S
Di, 22.10. 2:00 4 1 14 110° O
Mo, 21.10. 20:00 7 2 18 350° N
Mo, 21.10. 14:00 6 1 15 220° SW
Mo, 21.10. 8:00 4 1 7 190° S
Ortszeit Stärke Spitze Richtung
km/h Bft. km/h Grad Sektor
Mi, 23.10. 7:00 4 1 4 290° W
Mi, 23.10. 6:50 4 1 - 290° W
Mi, 23.10. 6:40 2 1 - 300° NW
Mi, 23.10. 6:30 2 1 4 320° NW
Mi, 23.10. 6:20 2 1 - 320° NW
Mi, 23.10. 6:10 4 1 - 140° SO
Mi, 23.10. 6:00 0 0 4 - -
Mi, 23.10. 5:30 0 0 4 - -
Mi, 23.10. 5:00 2 1 6 360° N
Mi, 23.10. 4:30 4 1 7 130° SO
Mi, 23.10. 4:00 4 1 4 160° S
Ortszeit Untergrenze Bedeckung Gattung
total tief tief mittel hoch
Mi, 23.10. 2:00 <30 m 8/8 0/8 - - -
Di, 22.10. 20:00 9000 m 6/8 0/8 - - -
Di, 22.10. 14:00 - 0/8 0/8 - - -
Di, 22.10. 8:00 9000 m 1/8 0/8 - - -
Di, 22.10. 2:00 - 0/8 0/8 - - -
Mo, 21.10. 20:00 10500 m 5/8 0/8 - - -
Mo, 21.10. 14:00 4200 m 8/8 8/8 - - -
Mo, 21.10. 8:00 9000 m 3/8 0/8 - - -
Ortszeit Bedeckungsgrad in Achtel und Wolkenuntergrenze
Mi, 23.10. 7:00 8(<30m)
Mi, 23.10. 6:50 8(<30m)
Mi, 23.10. 6:40 8(<30m)
Mi, 23.10. 6:30 8(<30m)
Mi, 23.10. 6:20 8(<30m)
Mi, 23.10. 6:10 8(<30m)
Mi, 23.10. 6:00 8(30m)
Mi, 23.10. 5:30 8(<30m)
Mi, 23.10. 5:00 8(<30m)
Mi, 23.10. 4:30 8(<30m)
Mi, 23.10. 4:00 8(<30m)
Ortszeit Luftdruck NN (hPa) Tendenz (hPa in 3 Std.)
Mi, 23.10. 2:00 1024 - 0,5
Di, 22.10. 20:00 1023 + 0,7
Di, 22.10. 14:00 1021 - 0,8
Di, 22.10. 8:00 1025 + 0,8
Di, 22.10. 2:00 1024 + 1,0
Mo, 21.10. 20:00 1020 + 0,9
Mo, 21.10. 14:00 1017 + 0,4
Mo, 21.10. 8:00 1018 + 1,9
Ortszeit Luftdruck NN (hPa) Tendenz (hPa in 3 Std.)
Mi, 23.10. 7:00 1021 - 1,5
Mi, 23.10. 6:50 1021 keine Meldung
Mi, 23.10. 6:40 1021 keine Meldung
Mi, 23.10. 6:30 1022 - 1,5
Mi, 23.10. 6:20 1022 keine Meldung
Mi, 23.10. 6:10 1021 keine Meldung
Mi, 23.10. 6:00 1022 - 1,6
Mi, 23.10. 5:30 1022 - 1,4
Mi, 23.10. 5:00 1023 - 1,1
Mi, 23.10. 4:30 1023 - 1,0
Mi, 23.10. 4:00 1023 - 0,9
Ortszeit Schneehöhe (cm)
Mi, 23.10. 2:00 0
Di, 22.10. 20:00 0
Di, 22.10. 14:00 0
Di, 22.10. 8:00 0
Di, 22.10. 2:00 0
Mo, 21.10. 20:00 0
Mo, 21.10. 14:00 0
Mo, 21.10. 8:00 0
Ortszeit Schneehöhe (cm)
Mi, 23.10. 7:00 0
Mi, 23.10. 6:50 0
Mi, 23.10. 6:40 0
Mi, 23.10. 6:30 0
Mi, 23.10. 6:20 0
Mi, 23.10. 6:10 0
Mi, 23.10. 6:00 0
Mi, 23.10. 5:30 0
Mi, 23.10. 5:00 0
Mi, 23.10. 4:30 0
Mi, 23.10. 4:00 0
Link zu dieser Seite / Seite empfehlen

Das Wetter in ...